Location: Bastogne Gables
(35.1554°N, 78.9900°W)
Time: 21:04:02
(UTC+00:00)

Cosmos 1689 Rocket - Pass Details

Date: 29 October 2020
Orbit: 360 x 375 km, 97.5° (Epoch: 25 November)

Event Time Altitude Azimuth Distance (km) Brightness Sun altitude
Rises 22:57:49 0° 21° (NNE) 2,199 5.6 -7.6°
Reaches altitude 10° 22:59:51 10° 30° (NNE) 1,347 4.4 -8.0°
Maximum altitude 23:02:31 35° 99° (E) 602 2.6 -8.5°
Drops below altitude 10° 23:05:10 10° 168° (SSE) 1,338 4.8 -9.0°
Sets 23:07:11 0° 177° (S) 2,180 6.0 -9.4°
